Погода Андрюшкино

Погода Андрюшкино : погода сейчас, прогноз погоды и архив. Всё, что Вы хотите узнать о погоде Андрюшкино!

Поиск расширенной информации на нашем сайте:

Полезная информация: Смотрите подробности профнастил ростов у нас.

Другие новости

Новости СМИ2

Главная страница сайта

Новости сайта

02.10.2013

Напоминаем, что на нашем новом сайте вы можете получить высокодетализированные прогнозы погоды по пунктам России, СНГ и мира (включающие важные для авиации метеовеличины, такие как направление и скорость ветра, видимость, явления погоды, количество и форма облачности, нижняя и верхняя граница облачности), а также ознакомиться с разнообразными материалами по авиационной метеорологии и подборкой полезных ссылок на эту тему.

Сайт Метеоцентр.Азия посвящён разработке технологий оптимизации авиаметеорологического обслуживания, включая проектирование и перспективное создание нескольких автоматизированных авиаметеорологических систем:
- система выпуска высокодетальных прогностических карт явлений погоды для нижнего воздушного пространства по России и ближнему зарубежью;
- система верификации прогнозов TAF (выпускаемых синоптиками официальных АМСГ РФ и ближнего зарубежья) и AUTOTAF (выпускаемых сайтом Метеоцентр.Азия) - выявление ошибок, онлайн-сопоставление с фактической погодой METAR, автоматическое внесение коррективов в прогнозы при резком отклонении фактической погоды от прогноза, подсчёт оправдываемости прогнозов по элементам и в целом;
- система обработки, анализа и отображения авиаметеорологической информации для применения провайдерами метеорологической информации.

Рекомендуем: Правила обследования зданий и сооружений.

Погода Андрюшкино - сегодня

Время (UTC), дата Ветер
(°,м/с) 
Видим.   Явления Облачность Т
(°С)
Тd
(°С)
f(%) Тe
(°С)
Pmin
(гПа)
dP
(гПа)
Po
(мм)
O2
(г/м3)
Тmin Tmax R s Состояние
почвы
00 08.06.17 120 (ЮВ) 20000 м    1/1 600 м 
[Cu hum]
+12.6 +3.3 53 +14  1007.9  -0.8  755  290           
03 08.06.17 080 (В) 20000 м    3/3 600 м 
[Cu hum]
+14.9 +0 36 +15  1007.1  -0.8  754  288           
06 08.06.17 310 (СЗ) 20000 м    8/4 600 м средняя, верхняя 
[Sc|Ac As|Ci fib]
+12.4 +2 49 +12  1007  -0.1  754  290           
09 08.06.17 190 (Ю) 20000 м    9/6 800 м средняя 
[Sc|Ac As]
+10.5 +4.2 65 +12  1007.7  0.7  754  292    +15.6       
12 08.06.17 080 (В) 10 км  слаб. дождь  9/6 630 м средняя 
[Sc|As op]
+6.2 +5.3 94 +6  1007.9  0.1  754  296           
15 08.06.17 120 (ЮВ) 10 км  слаб. дождь  10/8 660 м средняя 
[Sc|As op]
+7.2 +6.3 94 +7  1007.6  -0.3  754  295           
18 08.06.17 110 (В) 20000 м  {дождь}  8/4 600 м средняя 
[Sc|Ac As]
+5.8 +5.1 95 +7  1007.9  0.3  754  297           
21 08.06.17 110 (В) 20000 м    3/3 600 м 
[Sc]
+9.1 +7.6 90 +10  1008.2  0.4  755  293  +4.8    17  мокрый или
старый снег
10-40% 
00 09.06.17 110 (В) 20000 м    3/3 600 м 
[Sc]
+12.4 +5.8 64 +13  1008.8  0.6  755  290           
03 09.06.17 170 (Ю) 20000 м    4/4 600 м 
[Cu hum]
+15.1 +3.8 47 +16  1009.2  0.4  755  288           
06 09.06.17 330 (СЗ) 20000 м    3/3 600 м 
[Cu hum]
+15 +4.2 48 +15  1010.1  0.9  756  288           
09 09.06.17 010 (С) 20000 м    3/3 600 м 
[Sc]
+14.8 +3.7 47 +16  1010.9  0.8  757  289    +15.9       
12 09.06.17 080 (В) 20000 м    8/0 средняя, верхняя 
[Ac trans|Ci fib]
+11.8 +2.6 53 +12  1012  1.1  758  292           
15 09.06.17 010 (С) 20000 м    8/0 средняя, верхняя 
[Ac As|Ci fib]
+3.9 +3.2 95 +3  1013.4  1.3  759  301           
18 09.06.17 010 (С) 20000 м    6/0 средняя, верхняя 
[Ac trans|Ci fib]
+4.2 +3 92 +5  1014.9  1.5  760  301           
21 09.06.17 320 (СЗ) 20000 м    8/0 средняя 
[Ac As]
+8.6 +3.2 69 +8  1016.1  1.2  761  297  +2.9      мокрый или
старый снег
10-40% 
00 10.06.17 330 (СЗ) 20000 м    9/0 средняя 
[Ac As]
+9.3 +3 65 +9  1017.7  1.6  762  296           
03 10.06.17 340 (С) 20000 м    8/0 средняя, верхняя 
[Ac As|Ci fib]
+11 +2.4 55 +11  1018.6  0.9  762  295           
06 10.06.17 020 (С) 20000 м    8/1 600 м средняя, верхняя 
[Sc|Ac trans|Ci fib]
+12.4 +2.3 50 +13  1019.4  0.8  763  294           
09 10.06.17 010 (С) 20000 м    4/1 600 м средняя, верхняя 
[Sc|Ac trans|Ci fib]
+13.7 +2.4 46 +15  1019.6  0.3  763  293    +14       
12 10.06.17 120 (ЮВ) 20000 м    3/1 600 м средняя, верхняя 
[Sc|Ac trans|Ci fib]
+10.5 +2.3 57 +12  1020.3  0.6  764  296           
15 10.06.17 140 (ЮВ) 20000 м    3/3 600 м 
[Sc]
+6.5 +1.5 70 +7  1020.3  764  300           
18 10.06.17 210 (ЮЗ) 20000 м    9/3 600 м средняя 
[Sc|Ac As]
+7.5 +2.7 72 +8  1020.6  0.3  764  299           
21 10.06.17 340 (С) 10 км  {дождь}  10/8 750 м средняя 
[Frnb|As op]
+10 +9.6 97 +10  1020.8  0.2  764  295           
00 11.06.17 090 (В) 20000 м  {дождь}  4/4 600 м 
[Sc]
+12 +4.5 60 +13  1020.2  -0.6  764  294           
Время (UTC), дата Ветер
(°,м/с) 
Видим.   Явления Облачность Т
(°С)
Тd
(°С)
f(%) Тe
(°С)
Pmin
(гПа)
dP
(гПа)
Po
(мм)
O2
(г/м3)
Тmin Tmax R s Состояние
почвы

Для получения пояснительной информации подведите курсор к названию столбца.

ПОГОДА Андрюшкино - архив

Всё, что Вы хотите узнать о погоде Андрюшкино - удобно и подробно!

Выберите нужную дату (начиная с 1 января 2015* года) и нажмите кнопку "Найти".
Будут отображены архивные сводки погоды по пункту Андрюшкино, начиная с указанной даты.


Отображать данные в формате CSV (для использования в таблицах Excel)


Внимание! Наш архив погоды предназначен исключительно для личного некоммерческого использования в познавательных целях. Если Вам необходимы официальные справки о состоянии погоды (для производственных, юридических, коммерческих и т.п. целей), обращайтесь в органы Росгидромета.

*Примечание: данная дата относится к архиву по метеостанциям СССР (Россия, СНГ, Балтия).
Архив по метеостанциям Зарубежной Европы и Азии (кроме Китая) хранится 10 дней, по другим регионам земного шара (Китай, Африка, Америка, Австралия, Океания) - 1 день.

Андрюшкино - район местоположения метеостанции


Название, широта, долгота, высота метеостанции:
Андрюшкино 69.2°ш. 154.4°д. 46 м над ур. моря [Российская Федерация]

Дополнительная информация

В oтличие oт бoльшинства пoгoдных сайтoв мы публикуем пoдрoбную метеoинфoрмацию в детальнoм прoфессиoнальнoм фoрмате.

Характеристики температуры и влажнoсти вoздуха измеряются на высoте 2 м в тени вдали oт зданий и деревьев.
Скoрoсть ветра измеряется на высoте 10 м (на урoвне рoста челoвека скoрoсть ветра ниже в 1.5-2 раза). Если метеoстанция нахoдится в гoрoде или в лесу, тo скoрoсть ветра занижена на 2-4 м/с пo сравнению с oткрытым местoм. Скoрoсть ветра над акватoриями крупных рек и oзёр, а также на вершинах хoлмoв на 2-5 м/с выше, чем в oбычных услoвиях.
Атмoсфернoе давление в разных тoчках местнoсти мoжет значительнo oтличаться oт давления на метеoстанции, в зависимoсти oт услoвий рельефа (при пoдъёме на 10 м давление пoнижается примернo на 1 мм рт.ст.).